N178B KBOS-KRKD

Flight info

Callsign N178B
Flight time 0h 54m
Altitude 5500
Route NORTHEASTBOUND
Aircraft C402/L-SDFRY/C

Departure

Time 2026-05-04 16:03
Airport Boston Logan International Airport (KBOS)

Arrival

Time 2026-05-04 16:57
Airport Knox County Regional Airport (KRKD)
Time Latitude Longitude Altitude Speed Heading
2026-05-04 15:50 42.36533 -71.01528 12 ft 0 kts 300°
2026-05-04 15:57 42.36515 -71.01579 11 ft 13 kts 208°
2026-05-04 15:57 42.36420 -71.01498 13 ft 20 kts 123°
2026-05-04 15:57 42.36497 -71.01347 13 ft 27 kts 24°
2026-05-04 15:57 42.36647 -71.01266 10 ft 24 kts 15°
2026-05-04 15:58 42.36784 -71.01262 10 ft 17 kts 317°
2026-05-04 15:58 42.36889 -71.01218 10 ft 18 kts 40°
2026-05-04 15:58 42.36994 -71.01109 10 ft 19 kts 30°
2026-05-04 15:58 42.37121 -71.01023 7 ft 21 kts 26°
2026-05-04 15:59 42.37259 -71.00937 6 ft 21 kts 22°
2026-05-04 15:59 42.37399 -71.00861 6 ft 21 kts 20°
2026-05-04 15:59 42.37545 -71.00795 6 ft 22 kts 18°
2026-05-04 15:59 42.37626 -71.00700 6 ft 15 kts 113°
2026-05-04 16:00 42.37614 -71.00663 6 ft 0 kts 114°
2026-05-04 16:01 42.37613 -71.00661 6 ft 1 kts 113°
2026-05-04 16:01 42.37603 -71.00621 6 ft 8 kts 111°
2026-05-04 16:02 42.37513 -71.00603 6 ft 22 kts 199°
2026-05-04 16:02 42.37231 -71.00740 7 ft 71 kts 199°
2026-05-04 16:02 42.35899 -71.01348 221 ft 113 kts 198°
2026-05-04 16:03 42.35134 -71.01707 462 ft 120 kts 198°
2026-05-04 16:03 42.34329 -71.02057 746 ft 122 kts 207°
2026-05-04 16:03 42.33762 -71.02915 997 ft 127 kts 251°
2026-05-04 16:03 42.33787 -71.04079 1271 ft 129 kts 286°
2026-05-04 16:04 42.34106 -71.05286 1388 ft 144 kts 301°
2026-05-04 16:04 42.35811 -71.06702 1519 ft 157 kts 359°
2026-05-04 16:04 42.36903 -71.06274 1436 ft 166 kts 22°
2026-05-04 16:05 42.37985 -71.05679 1391 ft 170 kts 22°
2026-05-04 16:05 42.39078 -71.05113 1520 ft 164 kts 20°
2026-05-04 16:05 42.41230 -71.03992 1575 ft 168 kts 25°
2026-05-04 16:06 42.42302 -71.03322 1676 ft 165 kts 25°
2026-05-04 16:06 42.44820 -71.00942 1768 ft 167 kts 48°
2026-05-04 16:07 42.45846 -70.99361 1802 ft 169 kts 50°
2026-05-04 16:07 42.48071 -70.95644 1928 ft 170 kts 54°
2026-05-04 16:08 42.48770 -70.94348 1982 ft 169 kts 53°
2026-05-04 16:08 42.50811 -70.90462 2111 ft 169 kts 56°
2026-05-04 16:09 42.52033 -70.87700 2192 ft 169 kts 60°
2026-05-04 16:09 42.53128 -70.84834 2275 ft 170 kts 64°
2026-05-04 16:10 42.54149 -70.81966 2361 ft 170 kts 62°
2026-05-04 16:11 42.56771 -70.78841 2454 ft 171 kts 20°
2026-05-04 16:11 42.57912 -70.78408 2489 ft 171 kts 14°
2026-05-04 16:12 42.61335 -70.77204 2716 ft 165 kts 15°
2026-05-04 16:12 42.64702 -70.75967 2994 ft 161 kts 11°
2026-05-04 16:13 42.66746 -70.75676 3476 ft 147 kts
2026-05-04 16:13 42.68721 -70.75597 3859 ft 143 kts
2026-05-04 16:14 42.70716 -70.75616 4214 ft 141 kts
2026-05-04 16:14 42.72718 -70.75555 4530 ft 142 kts
2026-05-04 16:15 42.75718 -70.75178 5000 ft 144 kts 14°
2026-05-04 16:16 42.77673 -70.74506 5317 ft 145 kts 16°
2026-05-04 16:16 42.80586 -70.73190 5569 ft 151 kts 21°
2026-05-04 16:17 42.82600 -70.72162 5607 ft 158 kts 20°
2026-05-04 16:18 42.85616 -70.70209 5688 ft 162 kts 29°
2026-05-04 16:18 42.86608 -70.69463 5696 ft 164 kts 29°
2026-05-04 16:19 42.89670 -70.67174 5698 ft 169 kts 30°
2026-05-04 16:19 42.91663 -70.65577 5750 ft 168 kts 30°
2026-05-04 16:20 42.94695 -70.63089 5758 ft 169 kts 33°
2026-05-04 16:20 42.96617 -70.61213 5764 ft 170 kts 38°
2026-05-04 16:21 42.99245 -70.57961 5791 ft 170 kts 45°
2026-05-04 16:22 43.00945 -70.55673 5772 ft 171 kts 45°
2026-05-04 16:22 43.03633 -70.52425 5723 ft 173 kts 32°
2026-05-04 16:23 43.06696 -70.49680 5656 ft 173 kts 32°
2026-05-04 16:24 43.10783 -70.46044 5564 ft 175 kts 34°
2026-05-04 16:25 43.12929 -70.44485 5498 ft 176 kts 18°
2026-05-04 16:26 43.17542 -70.42442 5503 ft 173 kts 20°
2026-05-04 16:26 43.20958 -70.40820 5495 ft 171 kts 18°
2026-05-04 16:27 43.23235 -70.39803 5487 ft 171 kts 18°
2026-05-04 16:28 43.26649 -70.38332 5489 ft 171 kts 18°
2026-05-04 16:28 43.30080 -70.36977 5488 ft 171 kts 12°
2026-05-04 16:29 43.34751 -70.35696 5485 ft 171 kts
2026-05-04 16:30 43.38174 -70.34400 5477 ft 171 kts 28°
2026-05-04 16:31 43.40212 -70.32704 5472 ft 171 kts 34°
2026-05-04 16:31 43.43224 -70.30035 5474 ft 171 kts 32°
2026-05-04 16:32 43.46256 -70.27473 5465 ft 172 kts 37°
2026-05-04 16:33 43.48064 -70.25326 5476 ft 171 kts 44°
2026-05-04 16:33 43.49733 -70.22997 5473 ft 171 kts 48°
2026-05-04 16:34 43.51336 -70.20576 5474 ft 171 kts 46°
2026-05-04 16:34 43.52186 -70.19417 5476 ft 171 kts 45°
2026-05-04 16:35 43.54491 -70.15659 5480 ft 171 kts 52°
2026-05-04 16:35 43.56643 -70.11737 5482 ft 171 kts 54°
2026-05-04 16:36 43.57315 -70.10382 5479 ft 171 kts 57°
2026-05-04 16:36 43.58576 -70.07586 5485 ft 171 kts 59°
2026-05-04 16:37 43.59821 -70.04800 5487 ft 171 kts 58°
2026-05-04 16:37 43.60419 -70.03386 5485 ft 171 kts 61°
2026-05-04 16:37 43.61545 -70.00493 5492 ft 171 kts 62°
2026-05-04 16:38 43.62603 -69.97562 5493 ft 171 kts 65°
2026-05-04 16:39 43.64099 -69.93105 5499 ft 171 kts 63°
2026-05-04 16:39 43.65293 -69.90260 5502 ft 171 kts 58°
2026-05-04 16:40 43.66559 -69.87490 5503 ft 171 kts 59°
2026-05-04 16:40 43.67738 -69.84629 5512 ft 171 kts 61°
2026-05-04 16:41 43.68899 -69.81767 5522 ft 171 kts 61°
2026-05-04 16:41 43.70486 -69.77375 5536 ft 171 kts 66°
2026-05-04 16:42 43.71904 -69.72855 5552 ft 171 kts 67°
2026-05-04 16:43 43.72788 -69.69804 5561 ft 171 kts 69°
2026-05-04 16:43 43.73632 -69.66731 5572 ft 171 kts 70°
2026-05-04 16:43 43.74025 -69.65198 5577 ft 171 kts 71°
2026-05-04 16:44 43.75799 -69.59122 5590 ft 171 kts 59°
2026-05-04 16:45 43.77030 -69.56316 5599 ft 171 kts 58°
2026-05-04 16:46 43.78908 -69.52139 5615 ft 171 kts 59°
2026-05-04 16:46 43.80119 -69.49292 5632 ft 171 kts 59°
2026-05-04 16:47 43.81335 -69.46478 5593 ft 171 kts 60°
2026-05-04 16:47 43.82571 -69.43597 5368 ft 172 kts 60°
2026-05-04 16:48 43.84194 -69.39167 5097 ft 171 kts 60°
2026-05-04 16:48 43.84831 -69.37766 5001 ft 172 kts 55°
2026-05-04 16:49 43.86194 -69.35031 4824 ft 171 kts 54°
2026-05-04 16:49 43.87633 -69.32379 4589 ft 174 kts 53°
2026-05-04 16:50 43.89159 -69.29769 4415 ft 171 kts 50°
2026-05-04 16:50 43.90728 -69.27203 4204 ft 172 kts 51°
2026-05-04 16:51 43.92252 -69.24599 4002 ft 171 kts 51°
2026-05-04 16:51 43.93031 -69.23315 3840 ft 169 kts 51°
2026-05-04 16:51 43.94455 -69.20622 3403 ft 170 kts 53°
2026-05-04 16:52 43.96037 -69.17977 2967 ft 170 kts 48°
2026-05-04 16:52 43.96856 -69.16747 2788 ft 168 kts 48°
2026-05-04 16:53 43.98416 -69.14232 2290 ft 169 kts 51°
2026-05-04 16:53 44.00308 -69.10594 1571 ft 131 kts 54°
2026-05-04 16:54 44.00848 -69.09604 1224 ft 131 kts 51°
2026-05-04 16:55 44.02803 -69.06315 821 ft 101 kts 43°
2026-05-04 16:55 44.03994 -69.05434 701 ft 96 kts
2026-05-04 16:56 44.05016 -69.06717 430 ft 107 kts 288°
2026-05-04 16:56 44.05844 -69.09736 53 ft 87 kts 291°
2026-05-04 16:57 44.06028 -69.10389 46 ft 52 kts 291°
2026-05-04 16:57 44.06227 -69.10951 47 ft 14 kts 13°
2026-05-04 16:58 44.06174 -69.10484 46 ft 22 kts 110°
2026-05-04 16:58 44.06119 -69.10284 48 ft 22 kts 111°
2026-05-04 16:59 44.06004 -69.09865 52 ft 23 kts 110°
2026-05-04 17:00 44.06090 -69.09518 55 ft 5 kts 241°
2026-05-04 17:00 44.06090 -69.09519 55 ft 0 kts 243°